ROMMA est une association bénévole à but non lucratif. Votre soutien est indispensable : ADHERER à ROMMA ou FAIRE un DON

Le Versoud - (38, Isère)

Vallée du Grésivaudan (220 m)   Longitude: 05° 51' 44" E   Latitude: 45° 13' 06" N Station partenaire n°6
 

Détail journalier du     <<     >>

Température Precipitation Humidité Pression Vent Dir Rafale Dir. rafale Ensol.
Heure (°C) (mm) (%) (hPa) (km/h) (km/h) (min)
01:00 6.90511022018NE0
02:00 7.704510221NE19NE0
03:00 7.604710212ENE29NE0
04:00 7.404810212NE27ENE0
05:00 6.905210221NE18N0
06:00 5.805710221---19N0
07:00 5.40591022010N0
08:00 6.705410232NE26NNE0
09:00 8.004810234NE24ENE30
10:00 9.304510242N19N55
11:00 10.304210243N23N55
12:00 11.104110236NE21N60
13:00 12.203910235NE26N60
14:00 12.703710236NE26N60
15:00 13.103610229NE29NE60
16:00 13.603510227NE26NE60
17:00 13.703610227NE27NE60
18:00 13.103610224N23N60
19:00 11.304010232NE18NNE30
20:00 9.6046102308NE0
21:00 8.1052102400---0
22:00 6.9055102400---0
23:00 5.8059102500---0
minuit 4.7066102600---0

Graphique du 26-03-2019

 

Serveur OMMA